Skip Page Navigation
NASA JPL Caltech
NASA Logo - Jet Propulsion Laboratory + View the NASA Portal
+ Center for Near-Earth Object Studies
JPL Home Earth Solar System Stars & Galaxies Technology
JPL Solar System Dynamics
BODIES ORBITS EPHEMERIDES TOOLS PHYSICAL DATA DISCOVERY FAQ SITE MAP
JPL Small-Body Database Browser
Search: [ help ]  
523710 (2014 JF80)
Classification: TransNeptunian Object          SPK-ID: 2523710
Ephemeris | Orbit Diagram | Orbital Elements | Mission Design | Physical Parameters | Discovery Circumstances ]

[ show orbit diagram ]
Orbital Elements at Epoch 2459200.5 (2020-Dec-17.0) TDB
Reference: JPL 10 (heliocentric ecliptic J2000)
 Element Value Uncertainty (1-sigma)   Units 
e .4513013670914812 1.1991e-05  
a 34.21458052488963 0.00084969 au
q 18.77349355954537 5.6893e-05 au
i 13.79966227063 1.0672e-05 deg
node 261.0316453983298 8.9125e-05 deg
peri 83.78578350745445 0.0004573 deg
M 2.793901411448747 8.8037e-05 deg
tp 2458633.185566462336
(2019-May-29.68556646)
0.030696 TDB
period 73099.64311434176
200.14
2.7231
0.007455
d
yr
n .004924784645485771 1.8345e-07 deg/d
Q 49.65566749023388 0.0012332 au
  Orbit Determination Parameters
   # obs. used (total)      136  
   data-arc span      3756 days (10.28 yr)  
   first obs. used      2010-07-30  
   last obs. used      2020-11-10  
   planetary ephem.      DE441  
   SB-pert. ephem.      SB441-N16  
   condition code      2  
   norm. resid. RMS      .57814  
   source      ORB  
   producer      Otto Matic  
   solution date      2021-Apr-14 19:23:43  

Additional Information
 Earth MOID = 17.7949 au 
 Jupiter MOID = 14.0139 au 
 T_jup = 4.597 
[ show covariance matrix ]

Ephemeris | Orbit Diagram | Orbital Elements | Mission Design | Physical Parameters | Discovery Circumstances ]

Physical Parameter Table
Parameter Symbol Value Units Sigma Reference Notes
absolute magnitude H 9.0   n/a MPO450798  

523710 (2014 JF80)          Discovered 2011-Aug-03 by Pan-STARRS 1 at Haleakala
Reference: Last Updated: 2018-10-01
Ephemeris | Orbit Diagram | Orbital Elements | Mission Design | Physical Parameters | Discovery Circumstances ]
ABOUT SSD CREDITS/AWARDS PRIVACY/COPYRIGHT GLOSSARY LINKS
FirstGov 2021-Apr-19 10:52 UT
(server date/time)  
NASA Home Page
Site Manager:   Ryan S. Park
Webmaster  Alan B. Chamberlin